Temp
-10 -10 -11 -11 -11 -10 -11 -11 -12 -12 -12 -13 -13 -12 -12 -13 -13 -13 -12 -12 -12 -13 -13 -13 -13 -13 -13 -14 -14 -14 -14 -14 -14 -14 -14 -14 -14 -14 -14 -15 -14 -14 -14 -13
-11 -11 -12 -11 -11 -12 -12 -11 -11 -12 -12 -12 -12 -12 -13 -14 -13 -13 -13 -13 -13 -13 -13 -13 -14 -14 -14 -14 -14 -14 -14 -14 -14 -14 -14 -14 -14 -14 -15 -15 -15 -15 -15 -15
-12 -13 -12 -12 -13 -12 -12 -12 -12 -12 -13 -13 -13 -13 -13 -13 -12 -12 -13 -13 -14 -14 -14 -14 -14 -14 -14 -14 -14 -14 -14 -14 -14 -13 -13 -13 -14 -14 -14 -14 -14 -15 -15 -14
-12 -13 -13 -13 -13 -14 -14 -13 -13 -13 -14 -14 -13 -13 -13 -13 -13 -13 -13 -14 -13 -14 -14 -14 -14 -15 -15 -14 -14 -14 -14 -14 -14 -14 -13 -13 -13 -14 -14 -14 -15 -15 -14 -14
-12 -13 -12 -12 -14 -14 -13 -13 -13 -13 -13 -13 -13 -13 -14 -13 -13 -13 -13 -13 -13 -14 -15 -14 -14 -14 -14 -14 -14 -14 -14 -14 -14 -14 -14 -14 -13 -13 -14 -14 -14 -14 -14 -14
-12 -13 -12 -13 -13 -13 -13 -13 -13 -13 -13 -12 -13 -13 -14 -12 -13 -13 -13 -14 -14 -14 -14 -14 -14 -14 -14 -14 -14 -15 -14 -14 -14 -14 -14 -13 -13 -14 -14 -14 -14 -14 -14 -14
-12 -13 -13 -14 -13 -13 -13 -13 -13 -13 -14 -13 -13 -13 -13 -13 -13 -13 -14 -14 -14 -14 -14 -14 -14 -15 -15 -14 -14 -14 -14 -14 -14 -14 -14 -14 -14 -15 -15 -15 -15 -15 -15 -15
-13 -14 -14 -14 -14 -13 -14 -13 -14 -14 -14 -13 -14 -14 -13 -13 -13 -13 -14 -14 -13 -14 -14 -14 -14 -14 -15 -15 -15 -14 -14 -15 -14 -15 -15 -15 -15 -15 -16 -16 -16 -16 -15 -16
-14 -14 -14 -14 -14 -14 -14 -14 -14 -14 -14 -13 -14 -14 -14 -13 -14 -14 -14 -14 -14 -15 -15 -15 -15 -16 -16 -16 -15 -15 -15 -16 -16 -15 -16 -16 -16 -16 -17 -17 -16 -17 -16 -17
-14 -15 -14 -13 -14 -14 -13 -13 -14 -14 -14 -14 -15 -14 -14 -13 -14 -14 -14 -14 -14 -15 -16 -16 -16 -16 -15 -15 -16 -16 -16 -16 -16 -16 -16 -17 -17 -17 -17 -17 -17 -17 -17 -17
-15 -15 -14 -14 -14 -14 -13 -13 -15 -14 -14 -14 -14 -14 -15 -15 -14 -14 -14 -14 -14 -14 -14 -15 -15 -15 -16 -16 -16 -16 -16 -17 -17 -17 -17 -17 -17 -17 -17 -17 -17 -17 -17 -18
-14 -14 -15 -15 -14 -14 -14 -14 -14 -13 -14 -14 -15 -14 -15 -14 -14 -14 -14 -14 -14 -15 -15 -15 -15 -15 -16 -16 -16 -17 -17 -17 -17 -17 -17 -17 -17 -17 -17 -17 -17 -17 -18 -18
-14 -15 -15 -16 -15 -14 -15 -14 -14 -14 -14 -15 -15 -15 -15 -16 -14 -14 -15 -15 -15 -15 -16 -15 -15 -16 -16 -17 -17 -17 -17 -17 -17 -17 -17 -17 -17 -17 -17 -17 -18 -18 -18 -19
-15 -15 -15 -15 -15 -15 -14 -14 -14 -15 -14 -14 -15 -15 -15 -15 -15 -15 -15 -15 -15 -15 -16 -16 -16 -16 -17 -17 -17 -17 -17 -17 -17 -17 -17 -17 -17 -18 -18 -19 -19 -19 -19 -20
-15 -15 -16 -16 -16 -15 -15 -14 -15 -15 -15 -14 -15 -15 -15 -14 -15 -16 -16 -16 -16 -16 -16 -17 -17 -17 -17 -17 -16 -17 -17 -17 -17 -17 -18 -18 -18 -19 -19 -19 -20 -21 -21 -22
-15 -16 -16 -16 -16 -15 -15 -14 -15 -15 -15 -15 -15 -15 -15 -15 -15 -16 -16 -17 -17 -17 -17 -17 -17 -17 -17 -17 -17 -17 -17 -17 -18 -18 -18 -18 -19 -19 -20 -21 -22 -22 -23 -24
-15 -16 -16 -16 -15 -15 -14 -15 -15 -15 -15 -15 -15 -16 -15 -16 -16 -16 -16 -17 -17 -17 -17 -17 -17 -17 -17 -17 -17 -17 -18 -18 -18 -18 -19 -19 -20 -20 -21 -22 -23 -24 -25 -26
-16 -16 -16 -15 -15 -15 -15 -15 -15 -15 -15 -16 -16 -15 -16 -17 -16 -16 -17 -17 -17 -17 -17 -17 -17 -17 -17 -17 -17 -18 -18 -18 -18 -19 -19 -19 -20 -20 -22 -23 -25 -26 -27 -27
-16 -16 -15 -15 -15 -15 -15 -15 -15 -15 -16 -15 -16 -16 -16 -17 -17 -17 -18 -18 -17 -17 -17 -17 -17 -17 -17 -18 -18 -18 -18 -18 -18 -19 -19 -19 -20 -21 -23 -25 -26 -27 -28 -28
-15 -16 -16 -15 -15 -15 -15 -15 -15 -16 -16 -16 -16 -17 -17 -16 -17 -17 -17 -17 -17 -17 -17 -17 -17 -18 -17 -18 -18 -18 -18 -18 -19 -19 -19 -20 -21 -23 -25 -26 -27 -28 -28 -28
-15 -15 -15 -16 -15 -15 -16 -15 -15 -16 -16 -16 -16 -17 -17 -17 -18 -18 -17 -17 -17 -17 -17 -17 -17 -17 -18 -18 -18 -18 -18 -18 -19 -19 -20 -21 -23 -25 -26 -27 -28 -29 -29 -29
-15 -15 -15 -15 -15 -15 -16 -16 -16 -16 -16 -16 -16 -17 -17 -17 -18 -18 -17 -17 -17 -17 -17 -17 -17 -18 -18 -18 -18 -18 -18 -18 -19 -20 -21 -22 -25 -26 -27 -28 -29 -29 -29 -29
-15 -16 -16 -16 -15 -16 -16 -16 -16 -16 -16 -17 -16 -17 -17 -17 -18 -18 -17 -17 -17 -17 -17 -17 -18 -18 -18 -18 -18 -18 -18 -19 -20 -21 -22 -24 -26 -27 -28 -29 -29 -29 -29 -30
-16 -16 -16 -15 -16 -16 -16 -16 -16 -16 -17 -17 -17 -17 -17 -18 -18 -18 -18 -18 -17 -17 -17 -18 -18 -18 -18 -18 -18 -19 -19 -19 -20 -21 -22 -25 -26 -28 -29 -29 -29 -29 -30 -32
-16 -16 -16 -16 -17 -17 -16 -17 -17 -16 -17 -17 -17 -17 -17 -18 -18 -18 -18 -18 -17 -18 -18 -18 -18 -18 -18 -18 -19 -19 -19 -19 -21 -22 -23 -25 -27 -28 -29 -29 -29 -30 -32 -34
-16 -16 -16 -17 -18 -17 -17 -18 -17 -17 -17 -17 -17 -17 -18 -18 -18 -18 -18 -18 -18 -18 -18 -18 -18 -18 -19 -19 -19 -19 -19 -20 -21 -22 -24 -26 -27 -29 -29 -29 -29 -31 -33 -34
Height
5839 5841 5841 5839 5838 5839 5841 5842 5841 5843 5842 5840 5833 5839 5839 5840 5829 5830 5831 5827 5827 5826 5824 5821 5820 5818 5816 5812 5809 5806 5800 5797 5793 5790 5787 5785 5782 5779 5777 5774 5771 5767 5767 5769
5834 5833 5833 5832 5834 5834 5832 5833 5835 5835 5835 5830 5832 5833 5835 5834 5824 5819 5819 5821 5820 5818 5817 5815 5813 5810 5809 5807 5804 5800 5796 5792 5790 5785 5781 5778 5774 5771 5768 5763 5761 5759 5756 5753
5824 5825 5822 5822 5825 5826 5825 5826 5827 5828 5828 5825 5825 5824 5826 5820 5817 5815 5813 5814 5812 5812 5811 5809 5807 5805 5802 5799 5795 5792 5790 5786 5783 5779 5775 5770 5765 5761 5758 5754 5751 5748 5744 5740
5817 5819 5816 5815 5816 5818 5816 5820 5819 5818 5821 5819 5821 5815 5817 5819 5811 5807 5807 5806 5806 5805 5803 5803 5801 5798 5794 5791 5787 5784 5783 5779 5776 5772 5767 5762 5757 5752 5746 5741 5738 5733 5729 5726
5814 5810 5807 5810 5811 5811 5810 5811 5812 5811 5811 5811 5813 5812 5814 5806 5804 5804 5802 5803 5798 5797 5798 5795 5792 5789 5786 5784 5782 5777 5773 5770 5766 5762 5757 5752 5746 5740 5734 5730 5724 5719 5713 5708
5805 5805 5803 5806 5805 5805 5805 5805 5805 5805 5806 5806 5806 5805 5808 5799 5797 5796 5793 5793 5792 5791 5790 5787 5786 5782 5779 5775 5773 5770 5766 5761 5756 5751 5745 5740 5734 5728 5722 5716 5711 5707 5701 5696
5798 5800 5800 5801 5801 5801 5801 5801 5802 5802 5803 5802 5801 5803 5797 5796 5786 5791 5789 5785 5786 5785 5784 5782 5779 5775 5771 5767 5762 5761 5757 5750 5747 5740 5733 5727 5720 5715 5709 5704 5699 5694 5689 5687
5793 5794 5796 5800 5799 5799 5798 5799 5800 5799 5800 5801 5799 5795 5791 5791 5790 5788 5783 5780 5778 5779 5777 5776 5771 5767 5764 5759 5754 5750 5746 5738 5731 5728 5720 5714 5708 5702 5696 5692 5687 5682 5681 5677
5789 5790 5790 5795 5796 5797 5795 5795 5796 5795 5796 5794 5795 5790 5788 5784 5783 5782 5781 5779 5775 5773 5770 5767 5763 5759 5755 5750 5742 5735 5730 5723 5716 5713 5707 5700 5696 5690 5686 5680 5677 5672 5667 5663
5785 5789 5786 5790 5792 5792 5792 5791 5792 5791 5790 5788 5790 5787 5783 5780 5778 5777 5775 5772 5768 5766 5762 5758 5754 5749 5744 5738 5731 5724 5718 5712 5705 5700 5696 5690 5684 5679 5674 5670 5665 5659 5653 5649
5781 5784 5784 5787 5786 5787 5788 5787 5787 5787 5785 5782 5781 5785 5777 5776 5774 5771 5770 5765 5762 5759 5755 5751 5746 5739 5734 5727 5723 5716 5710 5703 5697 5691 5685 5679 5673 5668 5662 5656 5651 5645 5639 5634
5776 5778 5781 5780 5779 5781 5781 5781 5781 5779 5780 5778 5774 5775 5772 5771 5767 5762 5761 5757 5752 5750 5745 5741 5736 5730 5726 5720 5714 5707 5700 5693 5687 5681 5675 5668 5663 5657 5651 5644 5638 5631 5625 5618
5770 5772 5774 5775 5777 5776 5775 5776 5775 5773 5773 5772 5769 5769 5764 5761 5756 5757 5753 5750 5745 5742 5736 5731 5727 5722 5716 5710 5703 5697 5689 5682 5675 5669 5663 5658 5652 5646 5638 5631 5623 5616 5608 5599
5762 5766 5767 5770 5768 5768 5769 5770 5769 5768 5766 5765 5765 5762 5761 5754 5753 5749 5744 5739 5736 5733 5729 5724 5719 5713 5707 5700 5693 5685 5678 5672 5666 5660 5654 5647 5640 5632 5624 5615 5605 5595 5585 5575
5758 5760 5760 5763 5764 5761 5763 5764 5764 5760 5760 5758 5759 5756 5752 5749 5747 5743 5739 5733 5728 5723 5719 5715 5710 5704 5698 5690 5682 5675 5669 5662 5656 5649 5641 5633 5624 5614 5605 5596 5586 5575 5564 5553
5747 5753 5753 5756 5757 5755 5757 5758 5756 5755 5754 5752 5750 5748 5742 5742 5740 5738 5733 5728 5723 5718 5712 5707 5700 5693 5686 5679 5671 5665 5659 5652 5645 5637 5628 5619 5609 5599 5588 5576 5564 5551 5538 5526
5742 5743 5743 5749 5748 5746 5752 5751 5748 5748 5747 5746 5744 5740 5737 5734 5728 5729 5726 5722 5715 5709 5704 5697 5690 5683 5676 5668 5661 5655 5649 5641 5633 5624 5614 5604 5593 5580 5566 5553 5539 5526 5514 5502
5735 5736 5736 5741 5739 5740 5744 5742 5741 5740 5740 5738 5736 5734 5731 5729 5724 5719 5717 5710 5705 5700 5695 5689 5682 5673 5666 5659 5652 5645 5638 5629 5619 5610 5599 5587 5573 5559 5544 5530 5515 5502 5490 5479
5728 5729 5731 5730 5731 5733 5735 5735 5734 5732 5734 5727 5729 5726 5723 5723 5719 5713 5712 5703 5697 5691 5687 5680 5672 5663 5656 5650 5643 5635 5625 5616 5606 5595 5583 5569 5555 5540 5524 5508 5494 5481 5469 5458
5723 5722 5723 5723 5723 5723 5727 5727 5727 5724 5723 5722 5720 5717 5715 5711 5710 5704 5700 5694 5688 5682 5677 5669 5661 5653 5647 5640 5632 5623 5614 5604 5593 5581 5567 5552 5536 5519 5504 5488 5475 5462 5449 5438
5714 5714 5714 5715 5714 5717 5722 5715 5719 5716 5718 5713 5711 5709 5708 5704 5700 5695 5691 5685 5679 5674 5667 5659 5652 5645 5638 5630 5621 5613 5603 5592 5579 5565 5550 5534 5518 5501 5484 5470 5456 5443 5432 5420
5705 5705 5707 5707 5706 5710 5713 5709 5709 5709 5706 5705 5703 5701 5698 5694 5691 5687 5682 5676 5670 5664 5657 5650 5644 5637 5630 5620 5612 5603 5592 5579 5565 5551 5535 5518 5501 5484 5468 5455 5442 5428 5413 5399
5695 5700 5699 5701 5701 5703 5702 5700 5701 5700 5698 5696 5694 5692 5688 5685 5682 5678 5672 5666 5661 5654 5647 5641 5634 5628 5619 5610 5602 5592 5580 5567 5552 5537 5521 5504 5486 5470 5454 5440 5427 5412 5395 5379
5687 5687 5688 5691 5695 5695 5692 5692 5692 5690 5690 5686 5684 5681 5679 5676 5673 5668 5663 5657 5651 5645 5638 5632 5626 5618 5609 5601 5592 5581 5569 5555 5540 5524 5507 5490 5474 5458 5443 5427 5412 5396 5378 5361
5678 5679 5681 5682 5687 5686 5684 5682 5682 5679 5680 5678 5675 5672 5669 5665 5663 5659 5654 5648 5642 5635 5629 5624 5618 5608 5600 5592 5582 5570 5558 5544 5528 5512 5494 5477 5461 5447 5434 5419 5401 5384 5365 5344
5668 5671 5672 5675 5677 5677 5676 5674 5672 5670 5669 5668 5665 5663 5660 5656 5653 5649 5644 5639 5633 5627 5621 5616 5609 5600 5592 5582 5572 5560 5547 5533 5518 5501 5483 5466 5451 5437 5424 5411 5400 5375 5355 5340
Wind_Speed
29 26 24 26 28 30 32 25 29 31 29 34 39 32 27 23 40 42 38 33 32 30 29 26 27 30 32 33 38 44 38 33 36 38 40 43 44 45 43 43 41 45 48 63
40 37 32 34 27 26 30 29 29 32 31 37 34 29 27 24 36 41 35 29 29 28 28 28 31 33 35 39 42 38 30 30 33 36 40 41 44 46 47 49 49 49 51 51
40 33 38 37 34 32 31 32 30 31 30 36 36 36 25 36 33 29 34 33 23 26 30 32 35 36 39 42 37 32 31 34 37 38 42 45 49 51 51 51 50 50 53 55
30 32 36 35 31 28 33 29 34 37 34 36 31 35 29 28 32 40 36 36 36 29 36 32 37 39 40 37 33 35 34 36 33 36 39 41 46 49 53 57 57 57 57 57
25 31 33 29 29 31 34 33 30 30 29 27 23 27 20 32 40 33 33 33 37 38 33 34 33 33 31 32 34 36 35 31 39 45 44 47 48 47 50 54 57 60 61 60
24 27 34 24 21 22 23 24 19 18 16 13 7 22 13 27 36 31 26 31 36 30 33 34 31 31 36 36 34 34 37 44 48 48 53 53 54 50 49 51 54 55 57 59
24 23 23 17 11 10 9 8 11 12 8 16 16 18 26 25 14 29 29 32 31 34 32 31 34 35 39 41 42 43 46 48 52 55 55 54 53 50 50 50 51 52 55 52
22 16 17 12 9 9 13 15 15 17 13 14 17 20 28 29 34 25 27 34 38 32 32 37 38 38 39 41 45 50 55 51 54 50 48 48 51 51 49 48 49 52 49 50
20 18 22 15 14 15 18 18 17 22 22 23 14 21 27 30 23 22 26 35 30 29 37 41 39 39 44 51 53 54 54 48 51 50 45 46 46 48 48 49 50 51 52 52
25 20 27 19 16 19 19 24 21 24 26 25 15 16 24 31 31 34 38 36 46 39 40 41 43 46 47 48 47 48 50 51 51 49 47 46 46 48 50 52 54 56 56 56
30 28 30 24 25 22 21 23 20 22 25 28 27 19 26 28 32 35 35 39 42 39 41 41 42 44 45 46 47 50 50 52 52 52 51 51 51 51 54 55 57 57 59 61
32 30 27 27 25 22 23 24 22 23 22 20 24 23 25 29 31 36 37 37 40 41 42 43 41 42 42 45 48 51 52 52 52 51 51 51 52 53 54 55 57 60 63 66
32 30 29 27 28 25 22 19 20 22 24 22 25 23 28 31 37 37 35 37 40 41 41 39 38 40 44 46 48 51 51 50 50 50 50 51 52 55 58 61 63 65 68 71
35 35 33 30 28 22 19 25 26 25 26 23 22 26 27 35 34 37 39 41 40 39 34 36 41 41 45 49 52 51 47 46 48 49 51 54 56 58 62 66 71 74 77 81
46 39 32 26 25 30 27 27 26 28 25 28 24 27 30 35 32 33 36 38 37 35 36 40 42 46 49 50 52 46 46 46 49 51 54 58 62 66 70 73 75 77 79 80
44 42 41 37 33 31 30 25 27 26 25 27 27 30 36 34 33 29 31 32 32 34 37 42 46 48 50 51 46 45 46 50 52 54 59 64 68 71 74 75 76 77 77 77
33 35 40 34 33 33 26 24 27 25 25 26 28 33 33 34 38 34 34 30 33 36 41 45 49 52 49 44 45 47 49 52 54 58 63 69 72 75 77 79 78 76 74 73
31 29 30 26 30 29 24 25 26 26 24 28 30 31 33 30 35 39 32 35 34 39 43 46 49 49 43 43 46 50 51 55 60 63 68 74 78 81 80 78 76 74 73 70
28 28 29 29 31 29 23 24 23 25 24 33 29 32 35 31 33 37 31 37 40 44 46 47 51 45 43 44 48 51 56 60 64 67 73 79 82 83 81 78 74 70 67 66
27 28 29 30 31 32 27 26 24 26 30 30 33 35 35 38 35 36 36 39 42 45 47 49 54 45 44 47 49 54 59 64 66 71 77 82 84 82 79 74 69 67 67 66
29 30 32 31 34 32 22 34 25 30 32 34 36 35 36 35 36 37 38 41 44 45 46 50 49 44 46 47 52 57 62 66 70 74 80 83 82 79 75 70 69 68 68 70
30 32 33 36 37 33 25 32 33 33 34 35 36 37 36 36 37 38 39 41 43 45 46 48 44 44 45 49 54 59 64 69 73 77 82 82 79 76 72 69 68 69 74 75
36 32 36 37 36 33 32 35 33 33 36 36 41 38 38 37 37 37 39 41 44 46 46 44 42 44 46 50 55 60 66 71 74 78 81 81 76 73 70 70 69 73 76 75
38 39 38 36 31 30 35 35 36 37 36 40 41 39 38 38 37 37 40 43 45 47 44 42 42 44 48 52 57 61 68 73 76 80 81 79 76 71 69 69 72 75 76 74
41 40 39 38 30 31 34 37 37 37 37 41 40 39 38 39 39 38 41 44 45 45 40 41 43 45 50 54 59 63 70 74 77 80 80 78 74 69 68 68 74 74 71 71
43 41 40 35 30 32 34 37 38 39 42 41 40 38 39 39 38 39 42 44 45 40 39 41 43 46 51 56 61 64 71 75 77 80 80 77 72 68 67 68 69 70 69 66
Wind_Direction
281 281 277 266 263 280 288 274 268 267 269 271 272 289 293 284 285 291 286 287 288 288 287 292 292 295 300 304 307 310 304 304 309 305 301 301 298 297 295 291 280 275 278 269
283 284 278 276 276 275 274 271 266 270 270 271 277 285 295 285 282 275 301 282 285 290 294 296 297 295 298 304 304 302 302 306 307 306 305 301 297 293 292 292 292 292 294 289
281 280 283 281 280 275 269 270 272 269 269 277 287 289 278 275 263 265 288 291 284 289 293 290 293 297 300 301 300 301 292 300 301 300 299 298 297 296 292 290 289 290 287 287
278 279 279 281 283 274 271 269 272 276 276 275 274 279 275 286 289 277 276 272 281 283 286 289 298 300 298 296 292 295 295 297 304 313 313 313 304 294 290 291 292 292 290 287
279 277 277 275 276 267 273 278 279 280 284 284 291 285 288 268 277 285 284 296 280 307 300 299 304 301 293 291 296 297 294 289 300 309 310 310 306 304 296 289 288 290 291 290
288 271 276 286 276 278 281 281 282 283 289 298 287 276 256 278 277 281 292 294 298 301 301 306 305 301 301 296 297 300 293 294 300 306 308 307 304 298 293 290 289 289 289 290
276 269 269 281 285 278 283 290 291 291 278 310 279 283 274 268 294 277 291 288 295 302 304 304 308 300 301 299 296 295 297 298 299 304 302 300 299 297 292 288 288 287 289 294
266 272 264 268 263 280 293 299 297 283 269 252 290 286 287 281 273 265 276 295 289 298 302 305 303 300 299 299 298 298 301 302 303 305 302 298 297 296 291 289 287 287 293 293
243 252 260 273 267 270 279 276 284 290 287 293 312 282 280 277 276 305 276 282 290 301 308 305 307 303 304 305 308 308 309 311 311 312 304 298 296 295 297 294 295 293 291 291
245 250 265 263 276 271 269 275 276 282 288 289 277 273 283 284 295 293 292 293 299 313 307 310 310 308 308 309 311 312 313 312 311 309 307 306 303 301 300 299 297 296 296 296
247 250 262 270 269 274 281 275 275 279 281 286 292 288 283 293 291 287 294 299 306 307 310 313 313 315 315 316 314 312 312 311 311 310 309 309 307 306 305 305 304 303 301 299
248 257 254 266 269 270 270 277 284 284 290 295 288 294 293 293 294 297 304 308 307 314 313 315 316 316 316 313 315 314 313 312 313 312 312 312 312 310 308 306 305 303 302 299
253 255 261 263 263 262 269 274 280 286 295 295 291 301 301 299 296 307 306 309 310 313 314 314 316 315 317 317 317 316 314 313 314 315 315 313 312 310 307 305 303 301 299 297
249 252 256 257 262 262 266 282 283 285 288 289 298 293 296 290 302 305 309 309 311 311 312 309 312 315 316 316 319 317 317 318 316 315 314 313 312 310 309 309 308 306 304 301
262 253 248 247 262 274 275 273 281 280 287 288 292 291 293 296 303 309 309 312 314 315 314 313 314 313 315 317 318 318 318 317 316 315 316 316 317 316 314 310 308 304 300 296
260 251 251 252 267 271 271 273 273 276 278 286 290 294 290 305 303 307 309 312 312 310 310 313 314 317 318 318 318 318 318 318 317 317 319 320 318 315 313 312 309 305 302 300
255 256 258 257 263 268 268 271 270 272 279 284 287 286 301 302 304 306 308 312 307 312 311 314 318 320 319 319 319 319 319 319 320 322 321 319 318 318 318 316 312 307 304 302
250 252 264 266 266 267 269 271 272 276 281 281 285 293 296 297 299 304 312 312 316 316 317 317 320 318 319 320 320 320 320 323 324 322 321 322 323 322 320 317 313 310 308 306
256 260 269 272 271 272 280 269 272 278 282 281 291 292 293 295 298 302 303 303 307 309 314 316 320 319 320 320 321 322 326 326 323 323 325 325 324 324 322 319 316 314 312 310
261 268 272 272 273 277 276 275 275 278 278 288 290 292 296 299 303 305 311 310 308 312 316 316 318 320 320 322 325 328 327 325 326 326 326 326 326 326 324 321 320 318 317 315
264 268 272 271 269 271 275 278 279 277 284 285 290 295 295 297 303 307 310 311 311 316 318 317 318 319 322 325 330 330 328 328 328 328 327 328 328 327 325 324 323 321 319 317
263 265 269 270 271 278 270 273 278 282 282 289 293 292 295 299 304 308 310 309 312 317 319 316 317 320 322 329 331 330 330 331 331 330 330 331 331 329 328 327 326 324 322 321
266 266 262 264 270 277 279 276 277 280 284 290 290 294 295 301 306 308 311 311 316 318 318 315 317 320 327 331 330 330 333 333 333 332 333 333 333 332 330 329 328 328 325 324
261 266 267 267 274 273 271 276 279 282 287 287 292 295 298 302 306 309 309 310 317 319 317 314 318 321 329 329 330 331 334 335 334 335 335 336 336 334 332 332 331 330 329 328
257 261 265 270 270 271 278 281 286 288 285 286 291 295 299 301 304 308 308 311 316 315 313 314 318 325 328 329 329 333 335 336 337 336 338 338 337 335 334 334 333 334 334 334
262 264 265 268 273 273 276 277 283 284 283 289 291 295 297 300 304 306 309 314 315 311 312 315 320 326 328 330 331 334 337 338 338 339 340 339 338 335 335 335 338 337 337 338